Weather History for Perth, WE

Change the Weather History Date:

Wednesday, December 25, 2013

  Actual Average Record
Temperature  
Mean Temperature 74 °F -  
Max Temperature 89 °F 88 °F 105 °F (2007)
Min Temperature 60 °F 62 °F 39 °F (2004)
Cooling Degree Days 10    
Growing Degree Days 24 (Base 50)    
Moisture  
Dew Point 55 °F    
Average Humidity 55    
Maximum Humidity 94    
Minimum Humidity 20    
Precipitation  
Precipitation 0.00 in 0.01 in - ()
Sea Level Pressure  
Sea Level Pressure 29.88 in    
Wind  
Wind Speed 10 mph ()    
Max Wind Speed 20 mph    
Max Gust Speed -    
Visibility 10.1 miles    
Events      
Averages and records for this station are not official NWS values.
T = Trace of Precipitation, MM = Missing Value Source: Averaged Metar Reports

Daily Weather History Graph

Daily Weather History Graph

Search for Another Location

Airport:

Trip Planner

Search our weather history database for the weather conditions in past years. The results will help you decide how hot, cold, wet, or windy it might be!

Date:

Astronomy

Dec. 25, 2013 Rise Set
Actual Time 5:08 AM AWST 7:23 PM AWST
Civil Twilight 4:40 AM AWST 7:51 PM AWST
Nautical Twilight 4:06 AM AWST 8:25 PM AWST
Astronomical Twilight 3:28 AM AWST 9:03 PM AWST
Moon No Moon Rise 11:56 AM AWST (12/25)
Length of Visible Light 15h 10m
Length of Day
14h 14m
Waning Gibbous, 54% of the Moon is Illuminated
Dec 25
Waning Gibbous
Dec 25
Last Quarter
Jan 1
New
Jan 8
First Quarter
Jan 16
Full

Hourly Weather History & Observations

Time (AWST) Temp. Heat Index Dew Point Humidity Pressure Visibility Wind Dir Wind Speed Gust Speed Precip Events Conditions
12:00 AM 67 °F - 62 °F 79% 29.89 in 19 mi South 12.7 mph - -   Partly Cloudy
12:00 AM 68.0 °F - 62.6 °F 83% 29.89 in 6.2 mi South 12.7 mph - N/A   Mostly Cloudy
12:19 AM 66.2 °F - 62.6 °F 88% 29.89 in 6.2 mi South 11.5 mph - N/A   Partly Cloudy
12:30 AM 66.2 °F - 62.6 °F 88% 29.89 in 6.2 mi South 11.5 mph - N/A   Partly Cloudy
1:00 AM 64.4 °F - 60.8 °F 88% 29.89 in 6.2 mi South 10.4 mph - N/A   Partly Cloudy
1:30 AM 64.4 °F - 60.8 °F 88% 29.89 in 6.2 mi South 11.5 mph - N/A   Partly Cloudy
2:00 AM 63 °F - 60 °F 89% 29.89 in - South 9.2 mph - -  
2:00 AM 62.6 °F - 60.8 °F 94% 29.89 in 6.2 mi South 9.2 mph - N/A   Partly Cloudy
2:30 AM 62.6 °F - 60.8 °F 94% 29.89 in 6.2 mi South 8.1 mph - N/A   Partly Cloudy
3:00 AM 62 °F - 59 °F 88% 29.89 in 19 mi South 8.1 mph - -   Partly Cloudy
3:00 AM 62.6 °F - 59.0 °F 88% 29.89 in 6.2 mi South 8.1 mph - N/A   Mostly Cloudy
3:30 AM 62.6 °F - 59.0 °F 88% 29.92 in 6.2 mi SSW 8.1 mph - N/A   Mostly Cloudy
4:00 AM 62.6 °F - 59.0 °F 88% 29.92 in 6.2 mi South 6.9 mph - N/A   Mostly Cloudy
4:30 AM 60.8 °F - 59.0 °F 94% 29.92 in 6.2 mi South 6.9 mph - N/A   Scattered Clouds
5:00 AM 61 °F - 58 °F 88% 29.93 in - South 6.9 mph - -  
5:00 AM 60.8 °F - 59.0 °F 94% 29.92 in 6.2 mi South 6.9 mph - N/A   Scattered Clouds
5:30 AM 62.6 °F - 55.4 °F 77% 29.92 in 6.2 mi East 9.2 mph - N/A   Mostly Cloudy
6:00 AM 64 °F - 55 °F 65% 29.94 in 19 mi East 9.2 mph - -   Partly Cloudy
6:00 AM 64.4 °F - 55.4 °F 73% 29.92 in 6.2 mi East 9.2 mph - N/A   Mostly Cloudy
6:30 AM 66.2 °F - 55.4 °F 68% 29.95 in 6.2 mi East 11.5 mph - N/A   Mostly Cloudy
7:00 AM 68.0 °F - 53.6 °F 60% 29.95 in 6.2 mi East 11.5 mph - N/A   Mostly Cloudy
7:30 AM 68.0 °F - 53.6 °F 60% 29.95 in 6.2 mi East 16.1 mph - N/A   Mostly Cloudy
8:00 AM 70 °F - 53 °F 45% 29.95 in - East 15.0 mph - -  
8:00 AM 69.8 °F - 53.6 °F 56% 29.95 in - East 15.0 mph - N/A   Clear
8:30 AM 71.6 °F - 53.6 °F 53% 29.95 in - East 13.8 mph - N/A   Clear
9:00 AM 74 °F - 53 °F 38% 29.94 in 19 mi ENE 10.4 mph - -   Partly Cloudy
9:00 AM 75.2 °F - 53.6 °F 47% 29.92 in - ENE 9.2 mph - N/A   Clear
9:30 AM 77.0 °F - 53.6 °F 44% 29.92 in - East 9.2 mph - N/A   Clear
10:00 AM 77.0 °F - 51.8 °F 41% 29.92 in - NE 11.5 mph - N/A   Clear
10:30 AM 78.8 °F - 51.8 °F 39% 29.92 in - ESE 8.1 mph - N/A   Clear
11:00 AM 80 °F - 51 °F 26% 29.91 in - East 6.9 mph - -  
11:00 AM 78.8 °F - 51.8 °F 39% 29.89 in - East 6.9 mph - N/A   Clear
11:30 AM 82.4 °F - 50.0 °F 32% 29.89 in - East 5.8 mph - N/A   Clear
12:00 PM 83 °F - 48 °F 20% 29.88 in 19 mi WSW 4.6 mph - -   Partly Cloudy
12:00 PM 84.2 °F - 48.2 °F 29% 29.86 in - SW 4.6 mph - N/A   Clear
12:30 PM 86.0 °F - 48.2 °F 27% 29.86 in 6.2 mi North 5.8 mph - N/A   Unknown
1:00 PM 86.0 °F - 48.2 °F 27% 29.83 in - SSE 6.9 mph - N/A   Clear
1:30 PM 87.8 °F - 46.4 °F 24% 29.83 in - SSW 8.1 mph - N/A   Clear
2:00 PM 88 °F - 54 °F 21% 29.83 in - WSW 12.7 mph - -  
2:00 PM 87.8 °F 85.7 °F 53.6 °F 31% 29.83 in - WSW 12.7 mph - N/A   Clear
2:30 PM 87.8 °F 86.5 °F 57.2 °F 35% 29.80 in - West 16.1 mph - N/A   Clear
3:00 PM 86 °F - 54 °F 23% 29.83 in 19 mi SSW 18.4 mph - -   Partly Cloudy
3:00 PM 86.0 °F 84.2 °F 53.6 °F 33% 29.83 in - SSW 18.4 mph - N/A   Clear
3:30 PM 84.2 °F 82.8 °F 53.6 °F 35% 29.83 in - SW 15.0 mph - N/A   Clear
4:00 PM 84.2 °F 82.8 °F 53.6 °F 35% 29.80 in - SW 16.1 mph - N/A   Clear
4:30 PM 82.4 °F 81.4 °F 53.6 °F 37% 29.83 in - SW 19.6 mph - N/A   Clear
5:00 PM 82 °F - 54 °F 28% 29.82 in - SW 15.0 mph - -  
5:00 PM 82.4 °F 81.7 °F 55.4 °F 39% 29.80 in - SW 15.0 mph - N/A   Clear
5:30 PM 80.6 °F 80.5 °F 55.4 °F 42% 29.80 in - SW 13.8 mph - N/A   Clear
6:00 PM 80 °F - 56 °F 32% 29.83 in 19 mi WSW 13.8 mph - -   Partly Cloudy
6:00 PM 78.8 °F - 55.4 °F 44% 29.83 in - WSW 13.8 mph - N/A   Clear
6:30 PM 78.8 °F - 55.4 °F 44% 29.83 in - SW 16.1 mph - N/A   Clear
7:00 PM 75.2 °F - 55.4 °F 50% 29.83 in - SW 13.8 mph - N/A   Clear
7:30 PM 75.2 °F - 53.6 °F 47% 29.86 in - SW 13.8 mph - N/A   Clear
8:00 PM 73 °F - 53 °F 39% 29.86 in - SW 13.8 mph - -  
8:00 PM 73.4 °F - 53.6 °F 50% 29.86 in - SW 13.8 mph - N/A   Clear
8:30 PM 71.6 °F - 53.6 °F 53% 29.86 in - SSW 12.7 mph - N/A   Clear
9:00 PM 71 °F - 55 °F 46% 29.87 in 19 mi SSW 11.5 mph - -   Partly Cloudy
9:00 PM 71.6 °F - 55.4 °F 57% 29.86 in - SSW 11.5 mph - N/A   Clear
9:30 PM 71.6 °F - 53.6 °F 53% 29.86 in - South 10.4 mph - N/A   Clear
10:00 PM 69.8 °F - 51.8 °F 53% 29.86 in - South 12.7 mph - N/A   Clear
10:30 PM 69.8 °F - 51.8 °F 53% 29.86 in - South 12.7 mph - N/A   Clear
11:00 PM 68 °F - 52 °F 46% 29.85 in - SSW 10.4 mph - -  
11:00 PM 68.0 °F - 51.8 °F 56% 29.83 in - SSW 10.4 mph - N/A   Clear
11:30 PM 68.0 °F - 51.8 °F 56% 29.83 in - South 9.2 mph - N/A   Clear